SCP
-0 0 0 0 0 -0 -0 -0 -0 0 -0 -0 0 0 0 0 0 0 0 0 0 -0 -0 0 -0 -0 -0 -0 -0 -0 -0 -0 -0 -0 -0 -0 -0 -0 -0 0 -0 -0 -0 -0 -0 0 0 0 0
0 -0 0 0 0 -0 0 -0 -0 0 -0 -0 0 0 0 0 0 -0 -0 -0 -0 -0 -0 0 0 -0 -0 -0 -0 -0 -0 -0 -0 -0 -0 -0 -0 -0 -0 -0 0 -0 0 0 0 0 0 0 0
0 -0 0 -0 0 -0 0 -0 0 -0 0 -0 0 0 0 0 0 0 0 -0 -0 -0 -0 0 0 0 -0 -0 -0 -0 -0 -0 -0 -0 -0 -0 -0 -0 -0 -0 0 0 0 0 0 0 0 0 0
0 0 -0 -0 -0 -0 -0 -0 -0 0 -0 0 0 0 0 0 0 0 -0 -0 -0 -0 -0 0 0 0 -0 -0 -0 -0 -0 -0 -0 -0 -0 -0 -0 -0 -0 -0 0 0 0 0 0 0 0 0 0
0 0 -0 -0 0 0 -0 0 -0 -0 -0 -0 0 0 0 0 0 -0 -0 -0 -0 -0 -0 -0 0 0 -0 -0 -0 -0 -0 -0 -0 -0 -0 0 -0 -0 -0 0 0 0 0 0 0 0 0 0 0
0 0 0 0 -0 -0 -0 -0 -0 -0 -0 -0 -0 0 0 0 0 -0 -0 -0 -0 -0 -0 -0 0 0 -0 -0 -0 -0 -0 -0 -0 0 0 0 0 0 0 0 0 0 0 0 0 0 0 0 0
0 0 0 0 0 -0 -0 0 -0 -0 -0 0 0 0 0 0 0 -0 -0 -0 -0 -0 -0 0 -0 0 -0 -0 -0 -0 -0 -0 0 0 0 0 0 0 0 0 0 0 0 0 0 0 0 0 0
0 0 0 0 -0 -0 0 0 0 0 0 -0 0 0 0 0 0 0 -0 -0 0 -0 0 -0 -0 0 -0 0 0 0 0 0 0 0 0 -0 0 0 0 0 0 0 0 0 0 0 0 0 0
0 0 0 -0 0 -0 0 0 0 0 -0 0 0 0 0 0 0 0 0 0 0 -0 -0 0 0 0 0 0 0 0 0 0 0 0 0 0 0 0 0 0 0 0 0 0 0 0 0 0 0
0 0 0 0 -0 0 -0 -0 0 -0 0 -0 -0 0 0 0 0 0 0 -0 -0 -0 -0 0 0 0 0 0 0 0 0 0 0 0 0 0 0 0 0 0 0 0 0 0 0 0 0 0 0
-0 0 -0 -0 -0 0 0 0 0 0 -0 -0 0 0 0 0 0 0 -0 -0 -0 -0 -0 0 0 0 0 0 0 0 0 0 0 0 0 0 0 0 0 0 0 0 0 0 0 0 0 0 0
0 0 0 -0 0 0 -0 0 -0 -0 0 0 0 0 0 0 -0 -0 -0 -0 -0 -0 0 0 0 0 0 0 0 0 0 0 0 0 0 0 0 0 0 0 0 0 0 0 0 0 0 0 0
-0 0 0 0 0 0 0 -0 -0 -0 0 0 0 0 0 0 -0 -0 -0 -0 0 0 0 0 0 0 0 0 0 0 0 0 0 0 0 0 0 0 0 0 0 0 0 0 0 0 0 0 0
0 0 0 0 0 0 0 -0 0 0 0 0 0 0 0 0 0 0 0 0 0 0 0 0 0 0 0 0 0 0 0 0 0 0 0 0 0 0 0 0 0 0 0 0 0 0 0 0 0
0 0 0 0 0 0 0 -0 -0 0 0 0 0 0 0 0 0 0 0 0 0 0 0 0 0 0 0 0 0 0 0 0 0 0 0 0 0 0 0 0 0 0 0 0 0 0 0 0 0
0 0 0 0 0 0 0 0 0 0 0 0 0 0 0 0 0 0 0 0 0 0 0 0 0 0 0 0 0 0 0 0 0 0 0 0 0 0 0 0 0 -0 -0 0 0 0 0 0 0
0 0 0 0 0 0 0 0 0 0 0 0 0 0 0 0 0 0 0 0 0 0 0 0 0 0 0 0 0 0 0 0 0 0 0 0 0 0 0 0 0 -0 0 0 0 0 0 0 0
0 0 0 0 0 0 0 0 0 0 0 0 0 0 0 0 0 0 0 0 0 0 0 0 0 0 0 0 0 0 0 0 0 0 0 0 0 0 0 0 0 0 0 0 0 0 0 0 0
0 0 0 0 0 0 0 0 0 0 0 0 0 0 0 0 0 0 0 0 0 0 0 0 0 0 0 0 0 0 0 0 0 0 0 0 0 0 0 0 0 0 0 0 0 0 0 0 0
0 0 0 0 0 0 0 0 0 0 0 0 0 0 0 0 0 0 0 0 0 0 0 0 0 0 0 0 0 0 0 0 0 0 0 0 0 0 0 0 0 0 0 0 0 0 -0 0 0
0 0 0 0 0 0 0 0 0 0 0 0 0 0 0 0 0 0 0 0 0 0 0 0 0 0 0 0 0 0 0 0 0 0 0 0 0 0 0 0 0 0 0 0 0 0 0 0 0
0 0 0 0 0 0 0 0 0 0 0 0 0 0 0 0 0 0 0 0 0 0 0 0 0 0 0 0 0 0 0 0 0 0 0 0 0 0 0 0 0 0 0 0 0 -0 0 0 0
0 0 0 0 0 0 0 0 0 0 0 0 0 0 0 0 0 0 0 0 0 0 0 0 0 0 0 0 0 0 0 0 0 0 0 0 0 0 0 0 0 0 0 0 0 0 0 0 0
0 0 0 0 0 0 0 0 0 0 0 0 0 0 0 0 0 0 0 0 0 0 0 0 0 0 0 0 0 0 0 0 0 0 0 0 0 0 0 0 0 0 0 0 0 0 0 0 0
0 0 0 0 0 0 0 0 0 0 0 0 0 0 0 0 0 0 0 0 0 0 0 0 0 0 0 0 0 0 0 0 0 0 0 0 0 0 0 0 0 0 0 0 0 -0 0 0 0
0 0 0 0 0 0 0 0 0 0 0 0 0 0 0 0 0 0 0 0 0 0 0 0 0 0 0 0 0 0 0 0 0 0 0 0 0 0 0 0 0 0 0 0 -0 -0 0 0 0
0 0 0 0 0 0 0 0 0 0 0 0 0 0 0 0 0 0 0 0 0 0 0 0 0 0 0 0 0 0 0 0 0 0 0 0 0 0 0 0 0 0 0 0 -0 0 0 0 0
0 0 0 0 0 0 0 0 0 0 0 0 0 0 0 0 -0 -0 0 0 0 0 0 0 0 0 0 0 0 0 0 0 0 0 0 0 0 0 0 0 0 0 0 0 0 0 0 0 0
0 0 0 0 0 0 0 0 0 0 0 0 0 0 0 0 0 0 0 0 0 0 0 0 0 0 0 0 0 0 0 0 0 0 0 0 0 0 0 0 0 0 0 0 0 0 0 0 0
0 0 0 0 0 0 0 0 0 0 0 0 0 0 0 0 0 0 0 0 0 0 0 0 0 0 0 0 0 0 0 0 0 0 0 0 0 0 0 0 0 0 0 0 0 0 0 0 0
Wind_Speed_500mb
7 6 11 8 5 12 12 15 23 17 9 12 14 15 8 20 8 6 14 2 8 16 24 31 34 33 32 30 28 27 27 26 25 25 26 27 27 26 25 26 29 31 31 31 32 33 33 35 37
8 4 12 11 6 13 9 18 23 18 22 22 12 4 2 9 11 15 3 5 11 19 26 31 33 31 28 28 29 29 25 23 24 29 29 28 28 28 28 29 29 31 31 32 33 32 32 34 37
4 5 11 5 2 13 10 25 21 27 29 20 8 10 5 10 11 12 9 4 13 22 28 29 30 30 29 29 26 23 23 25 25 29 32 33 36 38 36 36 37 38 37 38 37 38 39 39 39
6 8 13 6 16 17 20 17 34 24 12 11 8 13 10 12 11 13 7 7 15 22 29 30 28 26 24 24 23 20 22 22 26 31 37 42 44 42 41 41 39 40 43 43 45 44 47 47 44
9 14 9 7 20 15 19 23 30 9 19 17 7 10 8 2 10 9 6 11 15 23 27 27 26 24 23 23 22 22 19 24 28 33 38 39 45 47 41 39 39 38 37 37 38 44 47 50 48
12 10 8 7 22 14 15 17 22 18 20 11 10 17 9 8 5 6 4 11 16 24 28 26 24 21 21 23 23 22 27 26 29 32 35 38 45 43 42 39 36 41 43 39 42 46 50 50 58
12 8 12 12 18 11 14 13 10 14 18 14 6 6 12 10 14 5 3 11 18 24 24 23 20 18 18 20 24 29 30 29 31 32 32 36 41 36 38 37 40 42 41 42 40 42 44 51 49
11 4 1 10 9 13 11 11 12 14 11 11 7 5 10 21 9 6 3 11 17 20 20 18 17 18 18 22 25 25 31 33 32 31 29 35 33 31 34 35 36 36 37 38 43 39 36 44 43
8 7 7 8 5 13 22 8 4 6 11 9 5 7 17 14 11 6 8 14 14 21 20 18 18 20 20 23 25 31 30 31 29 29 29 29 33 34 33 33 29 27 31 36 38 37 30 41 42
6 8 12 14 18 14 15 5 19 9 16 11 6 11 17 13 11 8 8 4 10 15 18 17 18 20 22 21 23 25 26 27 28 30 31 33 36 36 34 31 31 32 30 31 31 36 42 41 43
9 6 11 20 20 12 14 6 9 8 9 8 28 23 21 16 13 12 10 4 6 10 13 16 16 16 18 20 22 25 25 25 28 31 33 35 35 34 33 35 39 38 36 36 36 41 41 44 43
3 12 14 10 12 8 8 9 7 16 5 10 12 20 19 19 16 13 10 3 5 9 13 11 9 14 16 18 20 22 23 26 29 33 33 35 36 37 41 45 46 43 40 39 44 41 44 45 43
13 12 13 10 11 8 4 6 5 10 15 12 13 17 18 20 17 20 17 6 2 5 7 7 8 12 15 16 18 19 22 25 29 31 34 35 36 39 42 44 44 43 41 41 43 40 42 41 39
12 19 18 9 9 5 4 3 1 5 19 15 18 19 19 21 26 22 14 9 5 2 3 4 5 11 14 14 15 18 21 24 27 30 33 34 35 37 39 41 42 45 42 39 36 34 34 34 32
20 9 8 12 10 4 0 10 13 12 20 18 19 20 23 25 27 20 12 13 8 5 2 0 4 9 10 11 13 17 19 23 25 28 30 30 31 35 37 40 42 43 40 39 32 29 29 31 39
8 5 6 9 11 4 2 7 14 16 17 21 22 23 28 28 28 20 25 21 13 7 5 4 4 8 8 9 11 14 18 20 22 24 26 27 29 33 37 39 41 39 39 39 36 30 25 21 29
8 7 17 7 9 5 9 8 10 13 17 20 25 27 30 27 29 26 32 24 16 11 9 8 7 10 10 7 9 12 15 18 20 20 23 26 28 31 34 38 38 37 38 38 40 39 31 20 23
12 9 2 7 7 3 8 21 14 21 21 21 21 29 32 31 37 34 33 27 21 17 14 12 11 14 11 7 7 9 13 15 17 18 21 23 25 28 31 35 33 36 38 38 37 39 41 24 18
14 15 8 9 3 3 14 19 19 18 31 26 25 23 35 37 32 36 35 31 26 24 19 15 15 17 14 7 4 7 10 13 14 16 19 20 24 25 27 32 33 36 41 40 36 33 32 39 14
3 2 7 6 5 3 10 21 21 21 25 36 31 28 31 31 37 39 39 36 32 26 22 20 19 21 18 12 5 6 8 10 11 13 16 18 20 22 25 30 33 36 35 34 34 34 35 36 38
10 9 6 6 8 5 8 15 6 6 15 18 5 7 11 11 42 47 45 37 34 30 27 23 22 23 22 15 10 8 10 9 10 11 12 15 18 21 23 28 31 34 34 36 36 36 35 36 34
12 11 10 14 4 5 3 8 6 12 13 14 18 13 6 3 11 44 46 36 34 31 30 27 25 24 23 20 15 13 13 9 8 9 10 13 15 17 21 26 31 34 36 36 36 36 35 31 34
3 7 9 9 4 8 7 3 10 1 13 14 18 19 6 5 14 27 38 31 30 34 32 29 25 25 23 22 17 13 10 10 7 7 8 10 12 16 20 24 30 33 36 38 35 34 34 35 35
14 14 14 2 5 2 15 14 9 9 11 11 22 13 4 5 13 20 28 29 36 40 33 30 25 24 25 23 16 13 12 13 10 8 8 9 10 13 18 22 27 31 34 34 36 35 34 35 34
7 10 4 5 3 10 13 6 13 11 12 17 16 12 9 11 13 25 30 36 42 41 36 31 25 24 26 22 17 15 16 15 11 8 6 7 8 12 17 20 24 28 32 33 34 33 33 34 33
13 5 8 14 9 7 6 12 9 13 21 19 14 12 11 8 10 16 26 36 42 37 36 31 27 27 26 22 17 15 16 15 11 7 6 6 6 9 14 17 21 25 30 30 31 33 32 32 31
12 8 1 10 2 4 10 8 5 12 13 17 12 16 12 3 6 10 22 33 37 35 36 34 29 27 28 24 20 18 16 15 12 10 9 7 7 7 12 15 18 22 27 26 31 31 31 29 29
3 2 6 4 7 7 8 5 9 14 17 14 14 11 11 4 3 5 12 25 31 32 36 35 31 28 28 26 23 19 17 16 14 13 11 10 8 8 10 12 16 20 23 24 27 29 30 27 28
5 4 7 2 5 9 7 10 10 25 25 19 18 7 4 3 6 9 9 16 30 31 37 37 34 32 31 30 27 22 20 19 18 17 15 13 12 11 11 12 14 17 19 23 23 25 27 25 27
7 5 12 8 9 4 4 7 18 22 25 29 19 10 5 8 6 10 12 16 28 33 37 40 38 34 32 33 31 28 24 21 20 18 16 15 13 11 12 12 12 15 16 18 23 20 23 24 25
Wind_Direction_500mb
324 2 338 309 260 104 309 90 95 120 81 82 63 57 93 48 14 84 176 107 347 350 348 353 353 353 355 359 1 3 4 4 1 0 355 1 4 356 349 350 356 0 357 349 339 337 333 324 318
330 25 325 268 255 34 323 109 80 71 105 96 88 68 102 83 56 116 91 342 353 355 352 359 356 360 359 0 7 6 9 12 18 18 22 18 11 11 13 14 16 14 8 7 2 352 345 337 336
342 347 294 243 278 131 244 80 101 108 110 136 137 66 51 93 105 166 181 36 354 357 354 4 3 6 6 8 12 14 16 25 28 35 30 35 38 37 31 27 24 20 22 19 11 11 10 8 4
5 278 257 274 58 43 97 106 111 117 112 132 124 98 89 142 175 183 126 45 3 360 359 9 7 10 9 15 19 22 29 37 43 42 40 41 38 32 29 27 27 28 27 23 21 26 23 19 15
336 271 259 257 82 97 77 126 129 142 139 138 190 118 89 195 158 131 95 27 8 4 4 7 12 15 14 19 25 30 43 48 46 43 41 44 42 35 33 35 37 36 37 31 36 36 28 21 24
271 263 269 198 93 95 107 158 140 97 108 130 158 129 113 216 175 131 51 16 8 7 9 9 15 18 22 35 33 38 46 46 42 42 43 42 44 34 33 36 42 40 36 39 45 38 34 38 43
247 271 326 72 103 132 114 117 140 130 138 81 112 110 137 158 212 176 43 5 13 12 7 11 15 21 41 48 47 44 43 44 41 41 40 48 43 34 38 41 42 41 40 41 42 38 34 38 41
304 307 21 21 157 94 113 103 41 22 69 119 112 87 152 194 195 160 39 16 9 14 11 15 24 34 41 48 49 49 46 46 40 37 38 47 44 40 42 43 42 43 39 43 40 32 34 44 35
301 291 197 94 65 96 142 124 47 110 103 100 87 115 156 189 172 156 46 21 359 360 15 21 31 42 48 45 43 46 43 41 37 37 41 46 48 48 45 42 42 43 42 43 41 34 32 41 38
246 258 36 35 33 91 164 203 143 170 148 157 150 164 183 180 164 121 117 235 332 1 12 22 36 49 57 55 52 48 42 38 40 42 44 48 48 49 48 48 48 46 43 47 39 35 35 44 41
224 11 101 49 72 53 117 135 140 227 177 202 198 207 190 181 164 169 201 228 336 7 14 25 38 56 65 61 55 51 46 45 47 48 50 53 53 52 52 52 51 49 45 44 37 43 40 48 44
156 62 54 112 86 85 137 107 192 231 156 125 152 191 192 178 176 186 197 268 4 2 18 19 48 67 68 65 58 54 49 48 52 54 57 56 56 54 50 48 47 47 46 48 48 49 49 47 45
242 107 77 100 100 85 120 203 268 222 225 205 162 191 184 176 182 196 213 223 274 355 9 23 58 78 80 70 63 53 51 56 58 59 59 58 55 54 52 49 47 48 47 50 55 50 52 47 42
73 110 114 131 123 82 323 189 316 157 181 192 185 190 195 186 195 214 206 216 223 297 358 23 81 91 89 76 63 52 55 61 62 61 59 57 57 58 55 53 48 47 45 52 57 45 44 39 31
135 110 159 173 161 114 352 263 222 197 190 192 204 195 194 193 209 222 205 220 225 238 268 187 110 117 104 82 64 57 62 64 63 63 62 62 61 61 57 55 52 50 49 55 50 51 49 49 34
186 308 204 97 147 148 133 282 115 170 191 203 206 199 202 204 215 198 216 223 219 218 227 208 173 140 117 95 70 66 71 71 68 68 67 65 63 60 60 57 55 51 51 50 54 46 43 63 53
198 242 212 166 219 101 206 283 151 198 207 224 209 203 209 210 215 209 227 224 212 215 220 210 186 159 147 111 80 79 85 80 74 72 70 65 64 64 63 60 56 53 51 49 51 46 39 45 69
187 220 157 170 150 261 235 262 258 206 197 218 218 207 208 213 217 218 230 222 211 212 217 210 190 174 164 137 105 100 90 84 78 74 70 67 65 66 64 64 60 58 55 53 47 49 41 44 65
323 169 215 105 63 325 238 262 270 274 204 218 239 242 212 215 221 222 228 222 211 210 214 209 197 185 182 181 155 105 104 95 85 81 74 68 67 65 66 64 61 56 53 51 49 48 52 51 74
234 134 85 71 106 161 339 283 256 240 234 221 217 227 231 213 201 211 221 225 217 212 208 207 202 195 200 197 196 147 125 108 95 86 78 73 70 68 65 65 64 61 59 57 52 49 48 50 52
217 222 168 89 170 236 299 285 189 61 86 100 112 239 233 204 203 205 214 224 216 211 207 206 209 204 207 201 199 176 165 148 116 98 87 79 72 68 67 69 68 67 63 59 57 55 51 50 48
205 184 81 125 156 271 186 273 261 141 118 121 127 102 68 20 187 209 211 219 219 212 212 207 212 212 206 206 204 205 192 161 139 113 94 81 76 74 71 69 69 67 66 63 59 59 54 54 56
131 81 151 141 194 42 228 83 255 112 141 154 116 76 34 207 175 207 213 220 214 210 215 210 212 212 206 206 212 219 200 187 159 129 109 93 80 72 69 70 70 68 67 64 63 61 57 54 56
145 95 67 98 132 13 218 159 274 183 141 102 83 69 39 126 166 179 207 205 197 214 214 208 210 209 205 207 212 210 200 193 187 169 142 116 92 85 78 74 73 71 68 68 64 63 59 55 55
173 150 52 14 359 221 358 74 257 136 93 103 106 99 82 99 148 168 187 190 201 216 211 205 209 205 203 204 208 206 203 200 198 185 149 112 97 89 84 79 78 76 73 69 67 64 60 58 57
202 213 163 193 191 198 43 223 244 105 111 112 107 104 82 80 136 167 188 196 210 218 208 205 207 204 204 206 209 210 209 205 204 188 162 140 113 102 95 88 82 79 77 71 70 66 61 58 58
191 199 318 102 22 80 197 212 110 142 129 132 125 116 108 96 124 167 185 203 213 216 206 206 209 207 210 211 214 217 215 212 207 197 190 175 142 125 107 99 90 84 79 75 74 69 64 61 60
310 329 114 302 152 227 221 222 210 183 166 153 143 115 100 58 95 167 201 203 208 213 207 208 212 212 214 214 218 220 222 219 215 211 203 188 172 153 129 112 100 91 85 79 74 71 68 63 63
173 196 228 201 175 183 169 246 325 173 159 150 152 156 85 47 12 316 235 206 208 215 211 212 213 214 214 216 220 222 223 219 216 215 211 200 187 171 154 136 114 100 94 88 80 73 71 66 65
350 263 187 154 215 221 119 269 327 134 129 133 145 131 69 37 26 280 258 220 209 217 216 215 215 218 218 220 221 223 224 222 219 217 214 208 202 192 174 155 138 122 104 103 88 77 75 69 65
Wind_Speed_850mb
7 6 11 8 5 12 12 15 23 17 9 12 14 15 8 20 8 6 14 2 8 16 24 31 34 33 32 30 28 27 27 26 25 25 26 27 27 26 25 26 29 31 31 31 32 33 33 35 37
8 4 12 11 6 13 9 18 23 18 22 22 12 4 2 9 11 15 3 5 11 19 26 31 33 31 28 28 29 29 25 23 24 29 29 28 28 28 28 29 29 31 31 32 33 32 32 34 37
4 5 11 5 2 13 10 25 21 27 29 20 8 10 5 10 11 12 9 4 13 22 28 29 30 30 29 29 26 23 23 25 25 29 32 33 36 38 36 36 37 38 37 38 37 38 39 39 39
6 8 13 6 16 17 20 17 34 24 12 11 8 13 10 12 11 13 7 7 15 22 29 30 28 26 24 24 23 20 22 22 26 31 37 42 44 42 41 41 39 40 43 43 45 44 47 47 44
9 14 9 7 20 15 19 23 30 9 19 17 7 10 8 2 10 9 6 11 15 23 27 27 26 24 23 23 22 22 19 24 28 33 38 39 45 47 41 39 39 38 37 37 38 44 47 50 48
12 10 8 7 22 14 15 17 22 18 20 11 10 17 9 8 5 6 4 11 16 24 28 26 24 21 21 23 23 22 27 26 29 32 35 38 45 43 42 39 36 41 43 39 42 46 50 50 58
12 8 12 12 18 11 14 13 10 14 18 14 6 6 12 10 14 5 3 11 18 24 24 23 20 18 18 20 24 29 30 29 31 32 32 36 41 36 38 37 40 42 41 42 40 42 44 51 49
11 4 1 10 9 13 11 11 12 14 11 11 7 5 10 21 9 6 3 11 17 20 20 18 17 18 18 22 25 25 31 33 32 31 29 35 33 31 34 35 36 36 37 38 43 39 36 44 43
8 7 7 8 5 13 22 8 4 6 11 9 5 7 17 14 11 6 8 14 14 21 20 18 18 20 20 23 25 31 30 31 29 29 29 29 33 34 33 33 29 27 31 36 38 37 30 41 42
6 8 12 14 18 14 15 5 19 9 16 11 6 11 17 13 11 8 8 4 10 15 18 17 18 20 22 21 23 25 26 27 28 30 31 33 36 36 34 31 31 32 30 31 31 36 42 41 43
9 6 11 20 20 12 14 6 9 8 9 8 28 23 21 16 13 12 10 4 6 10 13 16 16 16 18 20 22 25 25 25 28 31 33 35 35 34 33 35 39 38 36 36 36 41 41 44 43
3 12 14 10 12 8 8 9 7 16 5 10 12 20 19 19 16 13 10 3 5 9 13 11 9 14 16 18 20 22 23 26 29 33 33 35 36 37 41 45 46 43 40 39 44 41 44 45 43
13 12 13 10 11 8 4 6 5 10 15 12 13 17 18 20 17 20 17 6 2 5 7 7 8 12 15 16 18 19 22 25 29 31 34 35 36 39 42 44 44 43 41 41 43 40 42 41 39
12 19 18 9 9 5 4 3 1 5 19 15 18 19 19 21 26 22 14 9 5 2 3 4 5 11 14 14 15 18 21 24 27 30 33 34 35 37 39 41 42 45 42 39 36 34 34 34 32
20 9 8 12 10 4 0 10 13 12 20 18 19 20 23 25 27 20 12 13 8 5 2 0 4 9 10 11 13 17 19 23 25 28 30 30 31 35 37 40 42 43 40 39 32 29 29 31 39
8 5 6 9 11 4 2 7 14 16 17 21 22 23 28 28 28 20 25 21 13 7 5 4 4 8 8 9 11 14 18 20 22 24 26 27 29 33 37 39 41 39 39 39 36 30 25 21 29
8 7 17 7 9 5 9 8 10 13 17 20 25 27 30 27 29 26 32 24 16 11 9 8 7 10 10 7 9 12 15 18 20 20 23 26 28 31 34 38 38 37 38 38 40 39 31 20 23
12 9 2 7 7 3 8 21 14 21 21 21 21 29 32 31 37 34 33 27 21 17 14 12 11 14 11 7 7 9 13 15 17 18 21 23 25 28 31 35 33 36 38 38 37 39 41 24 18
14 15 8 9 3 3 14 19 19 18 31 26 25 23 35 37 32 36 35 31 26 24 19 15 15 17 14 7 4 7 10 13 14 16 19 20 24 25 27 32 33 36 41 40 36 33 32 39 14
3 2 7 6 5 3 10 21 21 21 25 36 31 28 31 31 37 39 39 36 32 26 22 20 19 21 18 12 5 6 8 10 11 13 16 18 20 22 25 30 33 36 35 34 34 34 35 36 38
10 9 6 6 8 5 8 15 6 6 15 18 5 7 11 11 42 47 45 37 34 30 27 23 22 23 22 15 10 8 10 9 10 11 12 15 18 21 23 28 31 34 34 36 36 36 35 36 34
12 11 10 14 4 5 3 8 6 12 13 14 18 13 6 3 11 44 46 36 34 31 30 27 25 24 23 20 15 13 13 9 8 9 10 13 15 17 21 26 31 34 36 36 36 36 35 31 34
3 7 9 9 4 8 7 3 10 1 13 14 18 19 6 5 14 27 38 31 30 34 32 29 25 25 23 22 17 13 10 10 7 7 8 10 12 16 20 24 30 33 36 38 35 34 34 35 35
14 14 14 2 5 2 15 14 9 9 11 11 22 13 4 5 13 20 28 29 36 40 33 30 25 24 25 23 16 13 12 13 10 8 8 9 10 13 18 22 27 31 34 34 36 35 34 35 34
7 10 4 5 3 10 13 6 13 11 12 17 16 12 9 11 13 25 30 36 42 41 36 31 25 24 26 22 17 15 16 15 11 8 6 7 8 12 17 20 24 28 32 33 34 33 33 34 33
13 5 8 14 9 7 6 12 9 13 21 19 14 12 11 8 10 16 26 36 42 37 36 31 27 27 26 22 17 15 16 15 11 7 6 6 6 9 14 17 21 25 30 30 31 33 32 32 31
12 8 1 10 2 4 10 8 5 12 13 17 12 16 12 3 6 10 22 33 37 35 36 34 29 27 28 24 20 18 16 15 12 10 9 7 7 7 12 15 18 22 27 26 31 31 31 29 29
3 2 6 4 7 7 8 5 9 14 17 14 14 11 11 4 3 5 12 25 31 32 36 35 31 28 28 26 23 19 17 16 14 13 11 10 8 8 10 12 16 20 23 24 27 29 30 27 28
5 4 7 2 5 9 7 10 10 25 25 19 18 7 4 3 6 9 9 16 30 31 37 37 34 32 31 30 27 22 20 19 18 17 15 13 12 11 11 12 14 17 19 23 23 25 27 25 27
7 5 12 8 9 4 4 7 18 22 25 29 19 10 5 8 6 10 12 16 28 33 37 40 38 34 32 33 31 28 24 21 20 18 16 15 13 11 12 12 12 15 16 18 23 20 23 24 25
Wind_Direction_850mb
324 2 338 309 260 104 309 90 95 120 81 82 63 57 93 48 14 84 176 107 347 350 348 353 353 353 355 359 1 3 4 4 1 0 355 1 4 356 349 350 356 0 357 349 339 337 333 324 318
330 25 325 268 255 34 323 109 80 71 105 96 88 68 102 83 56 116 91 342 353 355 352 359 356 360 359 0 7 6 9 12 18 18 22 18 11 11 13 14 16 14 8 7 2 352 345 337 336
342 347 294 243 278 131 244 80 101 108 110 136 137 66 51 93 105 166 181 36 354 357 354 4 3 6 6 8 12 14 16 25 28 35 30 35 38 37 31 27 24 20 22 19 11 11 10 8 4
5 278 257 274 58 43 97 106 111 117 112 132 124 98 89 142 175 183 126 45 3 360 359 9 7 10 9 15 19 22 29 37 43 42 40 41 38 32 29 27 27 28 27 23 21 26 23 19 15
336 271 259 257 82 97 77 126 129 142 139 138 190 118 89 195 158 131 95 27 8 4 4 7 12 15 14 19 25 30 43 48 46 43 41 44 42 35 33 35 37 36 37 31 36 36 28 21 24
271 263 269 198 93 95 107 158 140 97 108 130 158 129 113 216 175 131 51 16 8 7 9 9 15 18 22 35 33 38 46 46 42 42 43 42 44 34 33 36 42 40 36 39 45 38 34 38 43
247 271 326 72 103 132 114 117 140 130 138 81 112 110 137 158 212 176 43 5 13 12 7 11 15 21 41 48 47 44 43 44 41 41 40 48 43 34 38 41 42 41 40 41 42 38 34 38 41
304 307 21 21 157 94 113 103 41 22 69 119 112 87 152 194 195 160 39 16 9 14 11 15 24 34 41 48 49 49 46 46 40 37 38 47 44 40 42 43 42 43 39 43 40 32 34 44 35
301 291 197 94 65 96 142 124 47 110 103 100 87 115 156 189 172 156 46 21 359 360 15 21 31 42 48 45 43 46 43 41 37 37 41 46 48 48 45 42 42 43 42 43 41 34 32 41 38
246 258 36 35 33 91 164 203 143 170 148 157 150 164 183 180 164 121 117 235 332 1 12 22 36 49 57 55 52 48 42 38 40 42 44 48 48 49 48 48 48 46 43 47 39 35 35 44 41
224 11 101 49 72 53 117 135 140 227 177 202 198 207 190 181 164 169 201 228 336 7 14 25 38 56 65 61 55 51 46 45 47 48 50 53 53 52 52 52 51 49 45 44 37 43 40 48 44
156 62 54 112 86 85 137 107 192 231 156 125 152 191 192 178 176 186 197 268 4 2 18 19 48 67 68 65 58 54 49 48 52 54 57 56 56 54 50 48 47 47 46 48 48 49 49 47 45
242 107 77 100 100 85 120 203 268 222 225 205 162 191 184 176 182 196 213 223 274 355 9 23 58 78 80 70 63 53 51 56 58 59 59 58 55 54 52 49 47 48 47 50 55 50 52 47 42
73 110 114 131 123 82 323 189 316 157 181 192 185 190 195 186 195 214 206 216 223 297 358 23 81 91 89 76 63 52 55 61 62 61 59 57 57 58 55 53 48 47 45 52 57 45 44 39 31
135 110 159 173 161 114 352 263 222 197 190 192 204 195 194 193 209 222 205 220 225 238 268 187 110 117 104 82 64 57 62 64 63 63 62 62 61 61 57 55 52 50 49 55 50 51 49 49 34
186 308 204 97 147 148 133 282 115 170 191 203 206 199 202 204 215 198 216 223 219 218 227 208 173 140 117 95 70 66 71 71 68 68 67 65 63 60 60 57 55 51 51 50 54 46 43 63 53
198 242 212 166 219 101 206 283 151 198 207 224 209 203 209 210 215 209 227 224 212 215 220 210 186 159 147 111 80 79 85 80 74 72 70 65 64 64 63 60 56 53 51 49 51 46 39 45 69
187 220 157 170 150 261 235 262 258 206 197 218 218 207 208 213 217 218 230 222 211 212 217 210 190 174 164 137 105 100 90 84 78 74 70 67 65 66 64 64 60 58 55 53 47 49 41 44 65
323 169 215 105 63 325 238 262 270 274 204 218 239 242 212 215 221 222 228 222 211 210 214 209 197 185 182 181 155 105 104 95 85 81 74 68 67 65 66 64 61 56 53 51 49 48 52 51 74
234 134 85 71 106 161 339 283 256 240 234 221 217 227 231 213 201 211 221 225 217 212 208 207 202 195 200 197 196 147 125 108 95 86 78 73 70 68 65 65 64 61 59 57 52 49 48 50 52
217 222 168 89 170 236 299 285 189 61 86 100 112 239 233 204 203 205 214 224 216 211 207 206 209 204 207 201 199 176 165 148 116 98 87 79 72 68 67 69 68 67 63 59 57 55 51 50 48
205 184 81 125 156 271 186 273 261 141 118 121 127 102 68 20 187 209 211 219 219 212 212 207 212 212 206 206 204 205 192 161 139 113 94 81 76 74 71 69 69 67 66 63 59 59 54 54 56
131 81 151 141 194 42 228 83 255 112 141 154 116 76 34 207 175 207 213 220 214 210 215 210 212 212 206 206 212 219 200 187 159 129 109 93 80 72 69 70 70 68 67 64 63 61 57 54 56
145 95 67 98 132 13 218 159 274 183 141 102 83 69 39 126 166 179 207 205 197 214 214 208 210 209 205 207 212 210 200 193 187 169 142 116 92 85 78 74 73 71 68 68 64 63 59 55 55
173 150 52 14 359 221 358 74 257 136 93 103 106 99 82 99 148 168 187 190 201 216 211 205 209 205 203 204 208 206 203 200 198 185 149 112 97 89 84 79 78 76 73 69 67 64 60 58 57
202 213 163 193 191 198 43 223 244 105 111 112 107 104 82 80 136 167 188 196 210 218 208 205 207 204 204 206 209 210 209 205 204 188 162 140 113 102 95 88 82 79 77 71 70 66 61 58 58
191 199 318 102 22 80 197 212 110 142 129 132 125 116 108 96 124 167 185 203 213 216 206 206 209 207 210 211 214 217 215 212 207 197 190 175 142 125 107 99 90 84 79 75 74 69 64 61 60
310 329 114 302 152 227 221 222 210 183 166 153 143 115 100 58 95 167 201 203 208 213 207 208 212 212 214 214 218 220 222 219 215 211 203 188 172 153 129 112 100 91 85 79 74 71 68 63 63
173 196 228 201 175 183 169 246 325 173 159 150 152 156 85 47 12 316 235 206 208 215 211 212 213 214 214 216 220 222 223 219 216 215 211 200 187 171 154 136 114 100 94 88 80 73 71 66 65
350 263 187 154 215 221 119 269 327 134 129 133 145 131 69 37 26 280 258 220 209 217 216 215 215 218 218 220 221 223 224 222 219 217 214 208 202 192 174 155 138 122 104 103 88 77 75 69 65